timestamp,surface_pressure_avg,surface_temp_avg,battery_voltage,lat,long
2023-05-31 00:09:00+00:00,241.1231,5.1,13.05,47.84626,-54.09684
2023-05-31 00:19:00+00:00,233.608,5.1,12.81,47.84626,-54.09684
2023-05-31 00:29:00+00:00,224.1498,5.1,12.81,47.84626,-54.09684
2023-05-31 00:39:00+00:00,223.8598,5.1,12.81,47.84626,-54.09684
2023-05-31 00:49:00+00:00,225.9731,5.1,12.81,47.84626,-54.09684
2023-05-31 00:59:00+00:00,222.8198,5.1,12.81,47.84626,-54.09684
2023-05-31 01:09:00+00:00,216.4714,5.13,12.81,47.84626,-54.09684
2023-05-31 01:19:00+00:00,213.4915,5.15,12.73,47.84626,-54.09684
2023-05-31 01:29:00+00:00,211.1848,5.16,12.73,47.84626,-54.09684
2023-05-31 01:39:00+00:00,208.7832,5.18,12.73,47.84626,-54.09684
2023-05-31 01:49:00+00:00,207.6831,5.18,12.73,47.84626,-54.09684
2023-05-31 01:59:00+00:00,205.3098,5.18,12.73,47.84626,-54.09684
2023-05-31 02:09:00+00:00,201.5581,5.19,12.73,47.84626,-54.09684
2023-05-31 02:19:00+00:00,200.7698,5.19,12.73,47.84626,-54.09684
2023-05-31 02:29:00+00:00,204.8931,5.19,12.73,47.84626,-54.09684
2023-05-31 02:39:00+00:00,208.4431,5.19,12.73,47.84626,-54.09684
2023-05-31 02:49:00+00:00,204.5948,5.18,12.73,47.84626,-54.09684
2023-05-31 02:59:00+00:00,200.1048,5.19,12.73,47.84626,-54.09684
2023-05-31 03:09:00+00:00,202.2365,5.19,12.73,47.84626,-54.09684
2023-05-31 03:19:00+00:00,204.4831,5.2,12.65,47.84626,-54.09684
2023-05-31 03:29:00+00:00,205.2731,5.2,12.65,47.84626,-54.09684
2023-05-31 03:39:00+00:00,207.5998,5.2,12.65,47.84626,-54.09684
2023-05-31 03:49:00+00:00,211.8315,5.2,12.65,47.84626,-54.09684
2023-05-31 03:59:00+00:00,212.3131,5.2,12.65,47.84626,-54.09684
2023-05-31 04:09:00+00:00,213.8531,5.2,12.65,47.84626,-54.09684
2023-05-31 04:19:00+00:00,219.9564,5.2,12.65,47.84626,-54.09684
2023-05-31 04:29:00+00:00,223.9164,5.2,12.65,47.84626,-54.09684
2023-05-31 04:39:00+00:00,222.9947,5.2,12.65,47.84626,-54.09684
2023-05-31 04:49:00+00:00,224.7348,5.2,12.65,47.84626,-54.09684
2023-05-31 04:59:00+00:00,231.2664,5.2,12.65,47.84626,-54.09684
2023-05-31 05:09:00+00:00,233.0597,5.24,12.65,47.84626,-54.09684
2023-05-31 05:19:00+00:00,233.8947,5.29,12.65,47.84626,-54.09684
2023-05-31 05:29:00+00:00,239.0814,5.3,12.65,47.84626,-54.09684
2023-05-31 05:39:00+00:00,244.9464,5.3,12.65,47.84626,-54.09684
2023-05-31 05:49:00+00:00,249.2564,5.3,12.65,47.84626,-54.09684
2023-05-31 05:59:00+00:00,253.583,5.3,12.65,47.84626,-54.09684
2023-05-31 06:09:00+00:00,262.2081,5.3,12.65,47.84626,-54.09684
2023-05-31 06:19:00+00:00,264.1848,5.3,12.57,47.84626,-54.09684
2023-05-31 06:29:00+00:00,264.4564,5.3,12.57,47.84626,-54.09684
2023-05-31 06:39:00+00:00,271.4231,5.3,12.57,47.84626,-54.09684
2023-05-31 06:49:00+00:00,279.743,5.3,12.57,47.84626,-54.09684
2023-05-31 06:59:00+00:00,281.4481,5.31,12.57,47.84626,-54.09684
2023-05-31 07:09:00+00:00,283.71299999999997,5.37,12.57,47.84626,-54.09684
2023-05-31 07:19:00+00:00,290.143,5.4,12.57,47.84626,-54.09684
2023-05-31 07:29:00+00:00,294.5314,5.4,12.57,47.84626,-54.09684
2023-05-31 07:39:00+00:00,292.5563,5.4,12.57,47.84626,-54.09684
2023-05-31 07:49:00+00:00,294.8781,5.4,12.57,47.84626,-54.09684
2023-05-31 07:59:00+00:00,303.653,5.4,12.57,47.84626,-54.09684
2023-05-31 08:09:00+00:00,305.978,5.4,12.57,47.84626,-54.09684
2023-05-31 08:19:00+00:00,302.3447,5.4,12.57,47.84626,-54.09684
2023-05-31 08:29:00+00:00,304.8797,5.4,12.57,47.84626,-54.09684
2023-05-31 08:39:00+00:00,308.4614,5.4,12.57,47.84626,-54.09684
2023-05-31 08:49:00+00:00,311.593,5.4,12.57,47.84626,-54.09684
2023-05-31 08:59:00+00:00,310.2514,5.4,12.57,47.84626,-54.09684
2023-05-31 09:09:00+00:00,310.64799999999997,5.4,12.57,47.84626,-54.09684
2023-05-31 09:19:01+00:00,307.1179,5.4,12.57,47.84626,-54.09684
2023-05-31 09:29:01+00:00,308.9348,5.4,12.57,47.84626,-54.09684
2023-05-31 09:39:01+00:00,311.0246,5.4,12.57,47.84626,-54.09684
2023-05-31 09:49:01+00:00,306.0131,5.4,12.57,47.84626,-54.09684
2023-05-31 09:59:01+00:00,302.6013,5.4,12.57,47.84626,-54.09684
2023-05-31 10:09:01+00:00,301.0447,5.4,12.57,47.84626,-54.09684
2023-05-31 10:19:01+00:00,299.3113,5.4,12.57,47.84626,-54.09684
2023-05-31 10:29:01+00:00,290.358,5.4,12.57,47.84626,-54.09684
2023-05-31 10:39:01+00:00,283.2581,5.4,12.57,47.84626,-54.09684
2023-05-31 10:49:01+00:00,281.5881,5.4,12.57,47.84626,-54.09684
2023-05-31 10:59:01+00:00,278.538,5.4,12.57,47.84626,-54.09684
2023-05-31 11:09:01+00:00,274.8514,5.4,12.57,47.84626,-54.09684
2023-05-31 11:19:00+00:00,266.4597,5.4,12.65,47.84626,-54.09684
2023-05-31 11:29:00+00:00,261.4248,5.4,12.65,47.84626,-54.09684
2023-05-31 11:39:00+00:00,255.8614,5.4,12.65,47.84626,-54.09684
2023-05-31 11:49:00+00:00,249.6097,5.4,12.65,47.84626,-54.09684
2023-05-31 11:59:00+00:00,245.1831,5.4,12.65,47.84626,-54.09684
2023-05-31 12:09:00+00:00,240.1965,5.42,12.65,47.84626,-54.09684
2023-05-31 12:19:00+00:00,231.0598,5.43,12.65,47.84626,-54.09684
2023-05-31 12:29:00+00:00,223.0081,5.44,12.65,47.84626,-54.09684
2023-05-31 12:39:00+00:00,221.9098,5.44,12.65,47.84626,-54.09684
2023-05-31 12:49:00+00:00,220.0964,5.45,12.65,47.84626,-54.09684
2023-05-31 12:59:00+00:00,216.6981,5.46,12.65,47.84626,-54.09684
2023-05-31 13:09:00+00:00,213.5464,5.47,12.65,47.84626,-54.09684
2023-05-31 13:19:00+00:00,211.9798,5.48,12.89,47.84626,-54.09684
2023-05-31 13:29:00+00:00,213.0847,5.49,12.89,47.84626,-54.09684
2023-05-31 13:39:00+00:00,211.9081,5.5,12.89,47.84626,-54.09684
2023-05-31 13:49:00+00:00,208.7815,5.5,12.89,47.84626,-54.09684
2023-05-31 13:59:00+00:00,208.6998,5.5,12.89,47.84626,-54.09684
2023-05-31 14:09:00+00:00,206.8815,5.5,12.89,47.84626,-54.09684
2023-05-31 14:19:00+00:00,202.6714,5.5,12.81,47.84626,-54.09684
2023-05-31 14:29:00+00:00,200.2531,5.5,12.81,47.84626,-54.09684
2023-05-31 14:39:00+00:00,199.5448,5.5,12.81,47.84626,-54.09684
2023-05-31 14:49:00+00:00,196.3715,5.5,12.81,47.84626,-54.09684
2023-05-31 14:59:00+00:00,194.4265,5.5,12.81,47.84626,-54.09684
2023-05-31 15:09:00+00:00,196.3014,5.5,12.81,47.84626,-54.09684
2023-05-31 15:19:00+00:00,197.0497,5.5,12.97,47.84626,-54.09684
2023-05-31 15:29:00+00:00,196.6314,5.5,12.97,47.84626,-54.09684
2023-05-31 15:39:00+00:00,199.6381,5.5,12.97,47.84626,-54.09684
2023-05-31 15:49:00+00:00,202.6298,5.5,12.97,47.84626,-54.09684
2023-05-31 15:59:00+00:00,203.8198,5.53,12.97,47.84626,-54.09684
2023-05-31 16:09:00+00:00,205.3715,5.55,12.97,47.84626,-54.09684
2023-05-31 16:19:00+00:00,206.8081,5.57,14.0,47.84626,-54.09684
2023-05-31 16:29:00+00:00,208.1414,5.59,14.0,47.84626,-54.09684
2023-05-31 16:39:00+00:00,213.1348,5.59,14.0,47.84626,-54.09684
2023-05-31 16:49:00+00:00,219.6665,5.59,14.0,47.84626,-54.09684
2023-05-31 16:59:00+00:00,225.1215,5.6,14.0,47.84626,-54.09684
2023-05-31 17:09:00+00:00,228.1815,5.6,14.0,47.84626,-54.09684
2023-05-31 17:19:00+00:00,230.7781,5.6,13.92,47.84626,-54.09684
2023-05-31 17:29:00+00:00,237.8698,5.6,13.92,47.84626,-54.09684
2023-05-31 17:39:00+00:00,245.2347,5.6,13.92,47.84626,-54.09684
2023-05-31 17:49:00+00:00,247.9398,5.64,13.92,47.84626,-54.09684
2023-05-31 17:59:00+00:00,253.9414,5.69,13.92,47.84626,-54.09684
2023-05-31 18:09:00+00:00,259.1231,5.7,13.92,47.84626,-54.09684
2023-05-31 18:19:00+00:00,263.5464,5.7,13.84,47.84626,-54.09684
2023-05-31 18:29:00+00:00,267.7981,5.7,13.84,47.84626,-54.09684
2023-05-31 18:39:00+00:00,274.123,5.74,13.84,47.84626,-54.09684
2023-05-31 18:49:00+00:00,277.6864,5.75,13.84,47.84626,-54.09684
2023-05-31 18:59:00+00:00,283.7448,5.71,13.84,47.84626,-54.09684
2023-05-31 19:09:00+00:00,289.5014,5.7,13.84,47.84626,-54.09684
2023-05-31 19:19:00+00:00,294.7764,5.7,13.76,47.84626,-54.09684
2023-05-31 19:29:00+00:00,298.9348,5.7,13.76,47.84626,-54.09684
2023-05-31 19:39:00+00:00,304.1964,5.7,13.76,47.84626,-54.09684
2023-05-31 19:49:00+00:00,309.353,5.68,13.76,47.84626,-54.09684
2023-05-31 19:59:00+00:00,314.2064,5.66,13.76,47.84626,-54.09684
2023-05-31 20:09:00+00:00,318.0914,5.64,13.76,47.84626,-54.09684
2023-05-31 20:19:00+00:00,321.9846,5.61,13.68,47.84626,-54.09684
2023-05-31 20:29:00+00:00,325.8347,5.6,13.68,47.84626,-54.09684
2023-05-31 20:39:00+00:00,327.118,5.64,13.68,47.84626,-54.09684
2023-05-31 20:49:00+00:00,327.3331,5.69,13.68,47.84626,-54.09684
2023-05-31 20:59:00+00:00,331.9229,5.7,13.68,47.84626,-54.09684
2023-05-31 21:09:00+00:00,333.1679,5.7,13.68,47.84626,-54.09684
2023-05-31 21:19:00+00:00,330.86800000000005,5.7,13.53,47.84626,-54.09684
2023-05-31 21:29:00+00:00,330.293,5.7,13.53,47.84626,-54.09684
2023-05-31 21:39:00+00:00,332.6046,5.7,13.53,47.84626,-54.09684
2023-05-31 21:49:00+00:00,331.2996,5.7,13.53,47.84626,-54.09684
2023-05-31 21:59:00+00:00,325.2097,5.73,13.53,47.84626,-54.09684
2023-05-31 22:09:00+00:00,325.9948,5.76,13.53,47.84626,-54.09684
2023-05-31 22:19:00+00:00,324.2647,5.76,13.37,47.84626,-54.09684
2023-05-31 22:29:00+00:00,318.4863,5.77,13.37,47.84626,-54.09684
2023-05-31 22:39:00+00:00,313.993,5.79,13.37,47.84626,-54.09684
2023-05-31 22:49:00+00:00,313.8497,5.79,13.37,47.84626,-54.09684
2023-05-31 22:59:00+00:00,309.7164,5.79,13.37,47.84626,-54.09684
2023-05-31 23:09:00+00:00,300.5897,5.79,13.37,47.84626,-54.09684
2023-05-31 23:19:01+00:00,296.6197,5.8,13.13,47.84626,-54.09684
2023-05-31 23:29:01+00:00,292.8896,5.8,13.13,47.84626,-54.09684
2023-05-31 23:39:01+00:00,288.9747,5.8,13.13,47.84626,-54.09684
2023-05-31 23:49:01+00:00,281.218,5.8,13.13,47.84626,-54.09684
2023-05-31 23:59:01+00:00,276.3014,5.8,13.13,47.84626,-54.09684
